Time,TemperatureF,DewpointF,PressureIn,WindDirection,WindDirectionDegrees,WindSpeedMPH,WindSpeedGustMPH,Humidity,HourlyPrecipIn,Conditions,Clouds,dailyrainin,SolarRadiationWatts/m^2,SoftwareType,DateUTC
2013-04-11 00:22:00,21.0,10.0,-100.00,North,360,5.0,9.0,61,0.00,,,0.19,0.000000,,2013-04-11 06:22:00,
2013-04-11 00:32:00,21.0,10.0,-100.00,North,360,5.0,9.0,61,0.00,,,0.19,0.000000,,2013-04-11 06:32:00,
2013-04-11 00:42:00,21.0,10.0,-100.00,North,360,5.0,9.0,61,0.00,,,0.19,0.000000,,2013-04-11 06:42:00,
2013-04-11 00:52:00,21.0,10.0,-100.00,North,360,5.0,9.0,61,0.00,,,0.19,0.000000,,2013-04-11 06:52:00,
2013-04-11 01:22:00,22.0,15.0,-100.00,North,354,4.0,7.0,75,0.00,,,0.19,0.000000,,2013-04-11 07:22:00,
2013-04-11 01:32:00,22.0,15.0,-100.00,North,354,4.0,7.0,75,0.00,,,0.19,0.000000,,2013-04-11 07:32:00,
2013-04-11 01:42:00,22.0,15.0,-100.00,North,354,4.0,7.0,75,0.00,,,0.19,0.000000,,2013-04-11 07:42:00,
2013-04-11 01:52:00,22.0,15.0,-100.00,North,354,4.0,7.0,75,0.00,,,0.19,0.000000,,2013-04-11 07:52:00,
2013-04-11 02:22:00,22.0,12.0,-100.00,NNW,329,4.0,7.0,65,0.00,,,0.19,0.000000,,2013-04-11 08:22:00,
2013-04-11 02:32:00,22.0,12.0,-100.00,NNW,329,4.0,7.0,65,0.00,,,0.19,0.000000,,2013-04-11 08:32:00,
2013-04-11 02:42:00,22.0,12.0,-100.00,NNW,329,4.0,7.0,65,0.00,,,0.19,0.000000,,2013-04-11 08:42:00,
2013-04-11 02:51:00,22.0,12.0,-100.00,NNW,329,4.0,7.0,65,0.00,,,0.19,0.000000,,2013-04-11 08:51:00,
2013-04-11 03:22:00,24.0,10.0,-100.00,North,4,4.0,8.0,54,0.00,,,0.19,0.000000,,2013-04-11 09:22:00,
2013-04-11 03:33:00,24.0,10.0,-100.00,North,4,4.0,8.0,54,0.00,,,0.19,0.000000,,2013-04-11 09:33:00,
2013-04-11 03:42:00,24.0,10.0,-100.00,North,4,4.0,8.0,54,0.00,,,0.19,0.000000,,2013-04-11 09:42:00,
2013-04-11 03:52:00,24.0,10.0,-100.00,North,4,4.0,8.0,54,0.00,,,0.19,0.000000,,2013-04-11 09:52:00,
2013-04-11 04:23:00,25.0,7.0,-100.00,ESE,103,2.0,6.0,46,0.00,,,0.19,0.000000,,2013-04-11 10:23:00,
2013-04-11 04:32:00,25.0,7.0,-100.00,ESE,103,2.0,6.0,46,0.00,,,0.19,0.000000,,2013-04-11 10:32:00,
2013-04-11 04:42:00,25.0,7.0,-100.00,ESE,103,2.0,6.0,46,0.00,,,0.19,0.000000,,2013-04-11 10:42:00,
2013-04-11 04:52:00,25.0,7.0,-100.00,ESE,103,2.0,6.0,46,0.00,,,0.19,0.000000,,2013-04-11 10:52:00,
2013-04-11 05:22:00,24.0,11.0,-100.00,NW,311,3.0,6.0,56,0.00,,,-99.99,0.000000,,2013-04-11 11:22:00,
2013-04-11 05:32:00,24.0,11.0,-100.00,NW,311,3.0,6.0,56,0.00,,,-99.99,0.000000,,2013-04-11 11:32:00,
2013-04-11 05:42:00,24.0,11.0,-100.00,NW,311,3.0,6.0,56,0.00,,,-99.99,0.000000,,2013-04-11 11:42:00,
2013-04-11 05:52:00,24.0,11.0,-100.00,NW,311,3.0,6.0,56,0.00,,,-99.99,0.000000,,2013-04-11 11:52:00,
2013-04-11 06:22:00,25.0,14.0,-100.00,North,354,4.0,7.0,62,0.00,,,-99.99,0.000000,,2013-04-11 12:22:00,
2013-04-11 06:32:00,25.0,14.0,-100.00,North,354,4.0,7.0,62,0.00,,,-99.99,0.000000,,2013-04-11 12:32:00,
2013-04-11 06:42:00,25.0,14.0,-100.00,North,354,4.0,7.0,62,0.00,,,-99.99,0.000000,,2013-04-11 12:42:00,
2013-04-11 06:52:00,25.0,14.0,-100.00,North,354,4.0,7.0,62,0.00,,,-99.99,0.000000,,2013-04-11 12:52:00,
2013-04-11 07:22:00,25.0,15.0,-100.00,NNW,340,4.0,5.0,64,0.00,,,0.19,3.000000,,2013-04-11 13:22:00,
2013-04-11 07:32:00,25.0,15.0,-100.00,NNW,340,4.0,5.0,64,0.00,,,0.19,3.000000,,2013-04-11 13:32:00,
2013-04-11 07:43:00,25.0,15.0,-100.00,NNW,340,4.0,5.0,64,0.00,,,0.19,3.000000,,2013-04-11 13:43:00,
2013-04-11 07:52:00,25.0,15.0,-100.00,NNW,340,4.0,5.0,64,0.00,,,0.19,3.000000,,2013-04-11 13:52:00,
2013-04-11 08:22:00,32.0,18.0,-100.00,SSW,200,2.0,5.0,55,0.00,,,0.19,129.000000,,2013-04-11 14:22:00,
2013-04-11 08:32:00,32.0,18.0,-100.00,SSW,200,2.0,5.0,55,0.00,,,0.19,129.000000,,2013-04-11 14:32:00,
2013-04-11 11:23:00,38.0,21.0,-100.00,SE,140,5.0,8.0,50,-99.99,,,0.30,704.000000,,2013-04-11 17:23:00,
2013-04-11 11:32:00,38.0,21.0,-100.00,SE,140,5.0,8.0,50,-99.99,,,0.30,704.000000,,2013-04-11 17:32:00,
2013-04-11 11:42:00,38.0,21.0,-100.00,SE,140,5.0,8.0,50,-99.99,,,0.30,704.000000,,2013-04-11 17:42:00,
2013-04-11 11:52:00,38.0,21.0,-100.00,SE,140,5.0,8.0,50,-99.99,,,0.30,704.000000,,2013-04-11 17:52:00,
2013-04-11 12:22:00,43.0,24.0,-100.00,South,182,5.0,8.0,46,0.09,,,0.39,888.000000,,2013-04-11 18:22:00,
2013-04-11 12:32:00,43.0,24.0,-100.00,South,182,5.0,8.0,46,0.09,,,0.39,888.000000,,2013-04-11 18:32:00,
2013-04-11 12:42:00,43.0,24.0,-100.00,South,182,5.0,8.0,46,0.09,,,0.39,888.000000,,2013-04-11 18:42:00,
2013-04-11 12:52:00,43.0,24.0,-100.00,South,182,5.0,8.0,46,0.09,,,0.39,888.000000,,2013-04-11 18:52:00,
2013-04-11 13:22:00,45.0,27.0,-100.00,SSW,195,4.0,10.0,50,0.00,,,0.37,917.000000,,2013-04-11 19:22:00,
2013-04-11 13:32:00,45.0,27.0,-100.00,SSW,195,4.0,10.0,50,0.00,,,0.37,917.000000,,2013-04-11 19:32:00,
2013-04-11 13:42:00,45.0,27.0,-100.00,SSW,195,4.0,10.0,50,0.00,,,0.37,917.000000,,2013-04-11 19:42:00,
2013-04-11 13:52:00,45.0,27.0,-100.00,SSW,195,4.0,10.0,50,0.00,,,0.37,917.000000,,2013-04-11 19:52:00,
2013-04-11 14:22:00,48.0,31.0,-100.00,SSW,200,3.0,8.0,51,0.00,,,0.37,886.000000,,2013-04-11 20:22:00,
2013-04-11 14:33:00,48.0,31.0,-100.00,SSW,200,3.0,8.0,51,0.00,,,0.37,886.000000,,2013-04-11 20:33:00,
2013-04-11 14:42:00,48.0,31.0,-100.00,SSW,200,3.0,8.0,51,0.00,,,0.37,886.000000,,2013-04-11 20:42:00,
2013-04-11 15:22:00,47.0,32.0,-100.00,SSW,204,6.0,11.0,56,0.00,,,0.33,753.000000,,2013-04-11 21:22:00,
2013-04-11 15:33:00,47.0,32.0,-100.00,SSW,204,6.0,11.0,56,0.00,,,0.33,753.000000,,2013-04-11 21:33:00,
2013-04-11 15:42:00,47.0,32.0,-100.00,SSW,204,6.0,11.0,56,0.00,,,0.33,753.000000,,2013-04-11 21:42:00,
2013-04-11 15:53:00,47.0,32.0,-100.00,SSW,204,6.0,11.0,56,0.00,,,0.33,753.000000,,2013-04-11 21:53:00,
2013-04-11 16:23:00,48.0,25.0,-100.00,NNW,343,10.0,21.0,40,0.00,,,0.30,419.000000,,2013-04-11 22:23:00,
2013-04-11 16:32:00,48.0,25.0,-100.00,NNW,343,10.0,21.0,40,0.00,,,0.30,419.000000,,2013-04-11 22:32:00,
2013-04-11 16:43:00,48.0,25.0,-100.00,NNW,343,10.0,21.0,40,0.00,,,0.30,419.000000,,2013-04-11 22:43:00,
2013-04-11 16:52:00,48.0,25.0,-100.00,NNW,343,10.0,21.0,40,0.00,,,0.30,419.000000,,2013-04-11 22:52:00,
2013-04-11 17:22:00,47.0,23.0,-100.00,NW,306,9.0,19.0,38,0.00,,,0.23,505.000000,,2013-04-11 23:22:00,
2013-04-11 17:32:00,47.0,23.0,-100.00,NW,306,9.0,19.0,38,0.00,,,0.23,505.000000,,2013-04-11 23:32:00,
2013-04-11 17:42:00,47.0,23.0,-100.00,NW,306,9.0,19.0,38,0.00,,,0.23,505.000000,,2013-04-11 23:42:00,
2013-04-11 17:52:00,47.0,23.0,-100.00,NW,306,9.0,19.0,38,0.00,,,0.23,505.000000,,2013-04-11 23:52:00,
2013-04-11 18:22:00,48.0,22.0,-100.00,WNW,298,7.0,18.0,35,0.00,,,0.22,378.000000,,2013-04-12 00:22:00,
2013-04-11 18:32:00,48.0,22.0,-100.00,WNW,298,7.0,18.0,35,0.00,,,0.22,378.000000,,2013-04-12 00:32:00,
2013-04-11 18:42:00,48.0,22.0,-100.00,WNW,298,7.0,18.0,35,0.00,,,0.22,378.000000,,2013-04-12 00:42:00,
2013-04-11 18:52:00,48.0,22.0,-100.00,WNW,298,7.0,18.0,35,0.00,,,0.22,378.000000,,2013-04-12 00:52:00,
2013-04-11 19:22:00,45.0,18.0,-100.00,NNW,328,8.0,16.0,34,0.00,,,0.20,234.000000,,2013-04-12 01:22:00,
2013-04-11 19:32:00,45.0,18.0,-100.00,NNW,328,8.0,16.0,34,0.00,,,0.20,234.000000,,2013-04-12 01:32:00,
2013-04-11 19:42:00,45.0,18.0,-100.00,NNW,328,8.0,16.0,34,0.00,,,0.20,234.000000,,2013-04-12 01:42:00,
2013-04-11 19:52:00,45.0,18.0,-100.00,NNW,328,8.0,16.0,34,0.00,,,0.20,234.000000,,2013-04-12 01:52:00,
2013-04-11 20:22:00,40.0,15.0,-100.00,NNW,344,10.0,15.0,36,0.00,,,0.20,37.000000,,2013-04-12 02:22:00,
2013-04-11 21:22:00,39.0,19.0,-100.00,NNW,343,9.0,15.0,44,0.00,,,0.20,0.000000,,2013-04-12 03:22:00,
2013-04-11 21:33:00,39.0,19.0,-100.00,NNW,343,9.0,15.0,44,0.00,,,0.20,0.000000,,2013-04-12 03:33:00,
2013-04-11 21:43:00,39.0,19.0,-100.00,NNW,343,9.0,15.0,44,0.00,,,0.20,0.000000,,2013-04-12 03:43:00,
2013-04-11 21:52:00,39.0,19.0,-100.00,NNW,343,9.0,15.0,44,0.00,,,0.20,0.000000,,2013-04-12 03:52:00,
2013-04-11 22:22:00,35.0,19.0,-100.00,NNE,12,4.0,14.0,52,0.00,,,0.20,0.000000,,2013-04-12 04:22:00,
2013-04-11 22:33:00,35.0,19.0,-100.00,NNE,12,4.0,14.0,52,0.00,,,0.20,0.000000,,2013-04-12 04:33:00,
2013-04-11 22:43:00,35.0,19.0,-100.00,NNE,12,4.0,14.0,52,0.00,,,0.20,0.000000,,2013-04-12 04:43:00,
2013-04-11 22:52:00,35.0,19.0,-100.00,NNE,12,4.0,14.0,52,0.00,,,0.20,0.000000,,2013-04-12 04:52:00,